Stations météo

Publicité
Colmar, France (7197): Température de l'air & dewpoint: 11.07.2018 21:00:00 - 17.07.2018 21:00:00 (CEST)Colmar, France (7197): Température de l'air 5cm: 11.07.2018 21:00:00 - 17.07.2018 21:00:00 (CEST)Colmar, France (7197): Température de l'air -20cm & Température de l'air -100cm: 11.07.2018 21:00:00 - 17.07.2018 21:00:00 (CEST)Colmar, France (7197): Vitesse du vent & gusts: 11.07.2018 21:00:00 - 17.07.2018 21:00:00 (CEST)Colmar, France (7197): Direction du vent: 11.07.2018 21:00:00 - 17.07.2018 21:00:00 (CEST)Colmar, France (7197): reduced air pressure: 11.07.2018 21:00:00 - 17.07.2018 21:00:00 (CEST)Colmar, France (7197): visibility: 11.07.2018 21:00:00 - 17.07.2018 21:00:00 (CEST)Colmar, France (7197): Ensoleillement: 11.07.2018 21:00:00 - 17.07.2018 21:00:00 (CEST)Colmar, France (7197): Quantités de précipitations: 11.07.2018 21:00:00 - 17.07.2018 21:00:00 (CEST)
Date & Time tt [°C] td [°C] tt 5cm [°C] tt -20cm [°C] tt -100cm [°C] ff [km/h] ff [knt] fx [km/h] fx [knt] dd ppp [hPa] vv [km] sd [min] rr [mm]
17.07.2018 21:00:00 - - - - - - - - - - - - - -
17.07.2018 20:00:00 - - - - - - - - - - - - - -
17.07.2018 19:00:00 - - - - - - - - - - - - - -
17.07.2018 18:00:00 - - - - - - - - - - - - - -
17.07.2018 17:00:00 - - - - - - - - - - - - - -
17.07.2018 16:00:00 - - - - - - - - - - - - - -
17.07.2018 15:00:00 - - - - - - - - - - - - - -
17.07.2018 14:00:00 - - - - - - - - - - - - - -
17.07.2018 13:00:00 19,0 14,7 16,8 25,0 22,6 22 12 45 24 W 1016,9 20 10 1,4
17.07.2018 12:00:00 28,0 15,6 28,0 24,3 22,6 13 7 24 13 S 1014,9 11 49 0,0
17.07.2018 11:00:00 26,0 15,7 26,4 23,8 22,6 13 7 21 12 S 1015,1 20 54 0,0
17.07.2018 10:00:00 24,6 15,8 23,0 23,6 22,6 8 4 14 8 S 1015,0 20 57 0,0
17.07.2018 09:00:00 21,1 15,2 19,9 23,7 22,6 11 6 18 10 SSW 1015,3 20 50 0,0
17.07.2018 08:00:00 18,9 14,6 17,1 24,0 22,6 8 4 13 7 S 1015,3 20 60 0,0
17.07.2018 07:00:00 16,5 13,8 14,4 24,4 22,6 8 5 16 9 S 1015,2 16 43 0,0
17.07.2018 06:00:00 15,3 13,8 13,1 24,8 22,6 6 3 11 6 S 1015,0 20 0 0,0
17.07.2018 05:00:00 14,6 13,6 12,3 25,2 22,6 6 3 10 5 SSW 1014,6 20 0 0,0
17.07.2018 04:00:00 15,9 14,1 13,2 25,8 22,6 6 3 10 6 SSW 1014,2 20 0 0,0
17.07.2018 03:00:00 15,4 13,8 12,8 26,2 22,6 5 3 9 5 SSE 1014,1 20 0 0,0
17.07.2018 02:00:00 15,8 13,6 13,9 26,7 22,6 6 3 9 5 SSE 1013,9 16 0 0,0
17.07.2018 01:00:00 16,2 13,7 13,9 27,3 22,6 4 2 8 4 ESE 1013,7 20 0 0,0
17.07.2018 00:00:00 16,6 13,9 14,7 27,8 22,6 5 3 6 3 SW 1013,4 20 0 0,0
16.07.2018 23:00:00 18,2 14,9 15,9 28,3 22,6 2 1 8 4 WSW 1013,0 20 0 0,0
16.07.2018 22:00:00 20,4 15,8 18,0 28,7 22,6 2 1 8 5 W 1012,0 20 0 0,0
16.07.2018 21:00:00 24,9 14,7 24,9 28,9 22,6 5 3 10 5 NE 1010,9 20 33 0,0
16.07.2018 20:00:00 25,2 14,3 25,1 29,1 22,6 7 4 19 11 N 1010,4 20 24 0,0
16.07.2018 19:00:00 28,2 12,5 30,9 28,9 22,6 11 6 23 12 N 1009,7 20 60 0,0
16.07.2018 18:00:00 28,6 12,5 31,6 28,5 22,6 14 8 29 16 N 1009,7 20 60 0,0
16.07.2018 17:00:00 29,1 12,5 33,9 27,8 22,6 10 6 21 11 NNE 1009,9 20 60 0,0
16.07.2018 16:00:00 28,9 13,6 34,6 26,9 22,6 9 5 21 11 NE 1010,2 20 60 0,0
16.07.2018 15:00:00 28,4 10,1 33,2 25,9 22,7 8 5 16 9 NW 1010,8 20 60 0,0
16.07.2018 14:00:00 27,7 13,6 32,7 24,9 22,6 8 4 16 9 N 1011,4 20 60 0,0
16.07.2018 13:00:00 26,6 15,6 30,3 23,9 22,6 6 3 18 10 WNW 1012,2 20 60 0,0
16.07.2018 12:00:00 25,1 16,5 27,0 23,2 22,7 5 3 24 13 S 1013,0 20 60 0,0
16.07.2018 11:00:00 23,1 15,9 23,1 22,7 22,6 4 2 11 6 SW 1013,4 20 60 0,0
16.07.2018 10:00:00 20,9 15,2 20,9 22,5 22,6 4 2 11 6 W 1014,0 20 60 0,0
16.07.2018 09:00:00 18,9 15,2 18,9 22,5 22,7 6 3 11 6 SW 1014,7 20 60 0,0
16.07.2018 08:00:00 17,2 14,7 15,7 22,7 22,6 3 1 5 3 SSW 1015,0 20 60 0,0
16.07.2018 07:00:00 14,4 14,2 11,9 23,1 22,6 2 1 8 5 NNE 1015,6 0,7 41 0,0
16.07.2018 06:00:00 13,3 13,0 11,4 23,5 22,6 5 3 7 4 SW 1015,4 4,8 0 0,0
16.07.2018 05:00:00 13,9 13,3 11,9 23,9 22,6 2 1 6 3 ESE 1015,1 6 0 0,0
16.07.2018 04:00:00 15,0 14,0 13,7 24,3 22,6 4 2 8 5 SSW 1015,0 13 0 0,0
16.07.2018 03:00:00 15,7 14,7 14,7 24,7 22,6 4 2 10 6 S 1015,0 20 0 0,0
16.07.2018 02:00:00 16,7 14,5 16,2 25,1 22,6 9 5 21 12 WNW 1015,2 20 0 0,0
16.07.2018 01:00:00 17,1 15,3 16,6 25,5 22,6 9 5 13 7 SSW 1015,0 20 0 0,0
16.07.2018 00:00:00 17,5 15,8 17,2 26,0 22,6 8 4 15 8 WSW 1016,0 20 0 0,0
15.07.2018 23:00:00 17,4 15,7 16,3 26,5 22,6 8 4 14 7 SSW 1016,0 20 0 0,0
15.07.2018 22:00:00 17,6 15,2 16,8 27,1 22,6 9 5 31 17 ENE 1016,1 20 0 0,2
15.07.2018 21:00:00 17,4 15,7 17,0 27,6 22,6 9 5 27 15 NNE 1015,6 20 0 1,4
15.07.2018 20:00:00 18,1 15,7 17,1 28,1 22,6 22 12 42 23 WSW 1015,7 20 0 0,4
15.07.2018 19:00:00 20,4 17,6 19,5 28,5 22,6 4 2 19 11 ESE 1013,8 20 0 1,1
15.07.2018 18:00:00 20,5 16,9 17,6 28,7 22,6 9 5 42 23 N 1014,0 19 0 2,8
15.07.2018 17:00:00 24,7 15,3 26,2 28,4 22,6 13 7 26 14 NNE 1013,3 20 34 0,0
15.07.2018 16:00:00 26,2 13,7 26,8 28,1 22,6 12 6 23 13 NNE 1013,0 20 10 0,0
15.07.2018 15:00:00 25,2 15,5 26,0 27,9 22,6 13 7 22 12 NNW 1013,7 20 0 0,0
15.07.2018 14:00:00 26,9 14,6 28,1 27,2 22,5 13 7 20 11 NNW 1013,7 20 8 0,0
15.07.2018 13:00:00 29,9 13,6 33,3 26,3 22,5 11 6 21 11 WSW 1013,5 20 60 0,0
15.07.2018 12:00:00 27,3 15,0 29,5 25,7 22,5 8 5 22 12 WSW 1014,6 20 60 0,0
15.07.2018 11:00:00 25,2 14,3 25,5 25,4 22,5 9 5 14 7 W 1015,3 20 24 0,0
15.07.2018 10:00:00 23,9 14,0 23,6 25,3 22,5 6 3 13 7 W 1015,6 20 60 0,0
15.07.2018 09:00:00 21,7 14,8 22,1 25,4 22,5 7 4 11 6 N 1016,3 20 58 0,0
15.07.2018 08:00:00 20,2 14,6 15,9 25,7 22,5 4 2 9 5 ENE 1016,5 20 40 0,0
15.07.2018 07:00:00 16,3 13,8 13,9 26,1 22,5 3 2 10 5 NE 1016,8 20 0 0,0
15.07.2018 06:00:00 15,6 13,3 13,9 26,5 22,5 3 2 5 3 NE 1016,5 20 0 0,0
15.07.2018 05:00:00 16,2 13,7 14,0 26,9 22,5 3 1 9 5 W 1016,7 20 0 0,0
15.07.2018 04:00:00 16,3 13,6 14,3 27,3 22,5 2 1 8 5 NNW 1015,9 20 0 0,0
15.07.2018 03:00:00 18,5 13,8 15,7 27,7 22,4 5 3 13 7 S 1015,9 20 0 0,0
15.07.2018 02:00:00 18,6 14,1 16,8 28,1 22,4 4 2 5 3 E 1015,8 20 0 0,0
15.07.2018 01:00:00 19,4 14,4 17,8 28,5 22,4 0 0 6 4 N 1016,0 20 0 0,0
15.07.2018 00:00:00 18,9 15,2 17,5 28,9 22,4 4 2 5 3 WNW 1015,9 20 0 0,0
14.07.2018 23:00:00 19,9 14,0 17,8 29,3 22,4 2 1 5 3 N 1015,6 20 0 0,0
14.07.2018 22:00:00 20,9 14,5 18,2 29,7 22,4 2 1 9 5 W 1015,5 20 0 0,0
14.07.2018 21:00:00 25,3 13,2 22,9 29,8 22,4 2 1 10 5 NNE 1014,9 20 41 0,0
14.07.2018 20:00:00 28,1 12,0 29,4 29,9 22,4 5 3 12 6 NNE 1014,7 20 39 0,0
14.07.2018 19:00:00 28,4 12,7 30,1 29,8 22,4 6 3 16 9 NNE 1014,8 20 32 0,0
14.07.2018 18:00:00 28,8 11,8 30,9 29,6 22,4 10 5 18 10 N 1015,0 20 28 0,0
14.07.2018 17:00:00 29,8 12,7 32,5 29,2 22,4 9 5 17 9 N 1015,4 20 28 0,0
14.07.2018 16:00:00 28,8 12,7 31,7 28,7 22,4 7 4 17 9 NNE 1015,7 20 0 0,0
14.07.2018 15:00:00 29,7 12,6 32,4 27,9 22,4 9 5 21 11 NNW 1016,0 20 39 0,0
14.07.2018 14:00:00 29,1 13,3 33,6 26,9 22,4 11 6 23 13 NE 1016,4 18 55 0,0
14.07.2018 13:00:00 29,2 13,4 32,3 26,0 22,3 7 4 16 9 E 1017,0 20 56 0,0
14.07.2018 12:00:00 27,1 14,8 29,8 25,3 22,3 6 4 16 8 N 1017,5 20 60 0,0
14.07.2018 11:00:00 25,6 13,8 25,5 24,9 22,3 6 4 13 7 N 1018,0 20 60 0,0
14.07.2018 10:00:00 23,5 13,1 24,2 24,8 22,3 7 4 13 7 NNW 1018,6 20 60 0,0
14.07.2018 09:00:00 22,2 13,5 20,7 24,9 22,3 4 2 8 4 W 1018,9 20 60 0,0
14.07.2018 08:00:00 18,8 13,6 17,0 25,2 22,3 4 2 8 4 SSW 1019,1 20 60 0,0
14.07.2018 07:00:00 15,4 13,4 11,4 25,6 22,3 4 2 6 3 SSW 1019,1 20 43 0,0
14.07.2018 06:00:00 13,4 11,6 11,1 26,0 22,3 2 1 8 4 SSW 1019,1 20 0 0,0
14.07.2018 05:00:00 13,3 11,7 11,3 26,5 22,3 0 0 6 3 N 1019,1 20 0 0,0
14.07.2018 04:00:00 14,1 12,1 11,9 27,0 22,3 0 0 4 2 N 1019,0 20 0 0,0
14.07.2018 03:00:00 14,6 12,5 12,6 27,5 22,3 0 0 5 3 N 1018,9 20 0 0,0
14.07.2018 02:00:00 15,4 12,9 13,4 28,0 22,3 2 1 4 2 SSE 1018,8 20 0 0,0
14.07.2018 01:00:00 17,1 13,4 15,1 28,5 22,3 2 1 4 2 NW 1018,4 20 0 0,0
14.07.2018 00:00:00 17,4 12,9 15,5 29,0 22,3 0 0 6 3 N 1018,4 20 0 0,0
13.07.2018 23:00:00 18,5 13,6 16,2 29,5 22,3 0 0 3 2 N 1018,2 20 0 0,0
13.07.2018 22:00:00 20,5 13,5 18,0 29,8 22,3 0 0 9 5 N 1017,6 20 0 0,0
13.07.2018 21:00:00 24,7 13,6 24,4 30,0 22,3 5 3 12 6 N 1016,7 20 49 0,0
13.07.2018 20:00:00 27,5 12,7 29,6 30,0 22,3 7 4 18 10 NNE 1016,4 20 60 0,0
13.07.2018 19:00:00 28,8 12,7 31,9 29,8 22,3 9 5 17 9 N 1016,3 20 60 0,0
13.07.2018 18:00:00 29,3 11,4 33,7 29,3 22,3 6 3 18 10 N 1016,4 20 57 0,0
13.07.2018 17:00:00 29,9 10,9 34,5 28,5 22,3 7 4 16 9 WNW 1016,7 20 60 0,0
13.07.2018 16:00:00 29,1 10,7 34,4 27,6 22,3 7 4 18 10 NNW 1017,1 20 60 0,0
13.07.2018 15:00:00 28,7 11,3 34,7 26,6 22,3 9 5 19 11 ENE 1017,4 20 60 0,0
13.07.2018 14:00:00 27,7 12,1 32,2 25,5 22,3 8 4 19 10 ESE 1017,9 20 57 0,0
13.07.2018 13:00:00 26,8 12,4 30,6 24,6 22,3 9 5 19 10 N 1018,5 20 60 0,0
13.07.2018 12:00:00 25,0 12,2 27,4 23,9 22,3 8 4 16 9 N 1018,9 20 60 0,0
13.07.2018 11:00:00 23,3 13,7 23,7 23,4 22,3 9 5 17 9 N 1019,1 20 60 0,0
13.07.2018 10:00:00 21,3 13,2 21,7 23,3 22,3 7 4 16 8 N 1019,4 20 60 0,0
13.07.2018 09:00:00 19,8 13,7 20,4 23,3 22,3 4 2 10 5 NE 1019,6 20 60 0,0
13.07.2018 08:00:00 18,4 13,0 16,0 23,5 22,3 4 2 7 4 E 1019,6 20 60 0,0
13.07.2018 07:00:00 13,3 12,2 9,7 24,0 22,3 0 0 3 1 N 1020,1 20 48 0,0
13.07.2018 06:00:00 11,0 10,4 8,9 24,4 22,3 0 0 3 2 N 1020,1 14 0 0,0
13.07.2018 05:00:00 11,5 10,9 8,9 24,9 22,3 0 0 2 1 N 1019,8 13 0 0,0
13.07.2018 04:00:00 11,9 10,8 9,7 25,3 22,2 2 1 5 3 SSW 1019,5 19 0 0,0
13.07.2018 03:00:00 12,7 11,4 10,5 25,8 22,3 3 2 6 3 ESE 1019,4 20 0 0,0
13.07.2018 02:00:00 13,2 11,8 10,6 26,3 22,3 0 0 2 1 N 1019,2 20 0 0,0
13.07.2018 01:00:00 14,5 12,5 11,6 26,8 22,2 3 1 6 3 SSE 1019,1 20 0 0,0
13.07.2018 00:00:00 15,3 12,4 12,4 27,3 22,3 3 1 6 3 N 1019,0 20 0 0,0
12.07.2018 23:00:00 16,4 12,7 13,8 27,7 22,3 4 2 6 3 NNW 1018,6 20 0 0,0
12.07.2018 22:00:00 19,6 13,5 16,1 28,0 22,3 4 2 7 4 N 1018,0 20 0 0,0
12.07.2018 21:00:00 22,7 12,3 22,8 28,2 22,3 4 2 15 8 N 1017,4 20 45 0,0
12.07.2018 20:00:00 24,0 12,0 24,9 28,3 22,3 10 6 17 9 N 1016,8 20 27 0,0
12.07.2018 19:00:00 24,0 12,9 24,5 28,2 22,3 8 5 22 12 NNE 1016,7 20 26 0,0
12.07.2018 18:00:00 25,3 12,5 29,0 27,7 22,3 10 6 27 14 N 1016,4 20 60 0,0
12.07.2018 17:00:00 24,8 12,7 29,7 27,1 22,3 15 8 28 15 NNE 1016,6 20 60 0,0
12.07.2018 16:00:00 24,9 12,8 29,4 26,3 22,3 17 9 31 17 N 1016,9 20 60 0,0
12.07.2018 15:00:00 25,3 12,5 26,4 25,4 22,3 13 7 31 17 N 1016,7 20 47 0,0
12.07.2018 14:00:00 24,6 11,5 29,6 24,4 22,3 10 6 26 14 NE 1017,0 20 56 0,0
12.07.2018 13:00:00 23,9 11,9 26,7 23,5 22,3 8 5 24 13 N 1017,3 20 55 0,0
12.07.2018 12:00:00 23,4 12,1 25,5 22,7 22,3 7 4 18 10 ENE 1017,4 19 60 0,0
12.07.2018 11:00:00 21,9 10,7 23,2 22,2 22,3 6 3 14 7 NNE 1017,4 20 60 0,0
12.07.2018 10:00:00 20,4 11,1 20,3 22,0 22,3 6 3 10 6 NE 1017,8 20 60 0,0
12.07.2018 09:00:00 17,7 11,3 16,3 22,0 22,3 4 2 10 6 WSW 1017,9 20 60 0,0
12.07.2018 08:00:00 14,5 10,3 13,3 22,3 22,3 6 4 10 6 SSW 1018,2 20 60 0,0
12.07.2018 07:00:00 11,2 9,6 6,6 22,7 22,3 0 0 5 3 N 1018,0 20 50 0,0
12.07.2018 06:00:00 8,4 7,8 6,1 23,1 22,4 3 2 6 3 SSW 1018,3 9 0 0,0
12.07.2018 05:00:00 8,7 7,9 6,1 23,6 22,4 0 0 5 3 N 1018,3 16 0 0,0
12.07.2018 04:00:00 9,4 8,5 6,7 24,0 22,3 0 0 6 3 N 1018,1 19 0 0,0
12.07.2018 03:00:00 10,1 9,2 7,6 24,6 22,4 4 2 6 3 N 1018,1 19 0 0,0
12.07.2018 02:00:00 10,4 9,2 7,8 25,1 22,4 0 0 4 2 N 1018,2 20 0 0,0
12.07.2018 01:00:00 11,4 9,6 8,8 25,6 22,3 3 1 5 3 SE 1018,3 20 0 0,0
12.07.2018 00:00:00 11,8 10,0 9,1 26,1 22,4 3 1 4 2 SW 1018,3 20 0 0,0
11.07.2018 23:00:00 12,8 9,4 10,1 26,6 22,4 0 0 4 2 N 1018,2 20 0 0,0
11.07.2018 22:00:00 15,6 9,5 11,7 26,9 22,4 3 2 5 3 NNE 1017,7 20 1 0,0
11.07.2018 21:00:00 19,4 9,3 19,7 27,2 22,4 5 3 16 8 NE 1016,9 20 58 0,0

tt = Température de l'air
td = dewpoint
tt 5cm = Température de l'air 5cm
tt -20cm = Température de l'air -20cm
tt -100cm = Température de l'air -100cm
ff = Vitesse du vent
fx = gusts
dd = Direction du vent
ppp = reduced air pressure
vv = visibility
sd = Ensoleillement
rr = Quantités de précipitations

stations d'obs. à proximité